Tracking 28309 objects as of 1-Dec-2023
HD Live streaming from Space Station
objects crossing your sky now

STARLINK-5451

Track STARLINK-5451 now!
10-day predictions
STARLINK-5451 is classified as:


NORAD ID: 54771
Int'l Code: 2022-175P
Perigee: 546.0 km
Apogee: 547.8 km
Inclination: 53.2 °
Period: 95.4 minutes
Semi major axis: 6917 km
RCS: Unknown
Launch date: December 17, 2022
Source: United States (US)
Launch site: AIR FORCE EASTERN TEST RANGE (AFETR)
Your satellite tracking list
Your tracking list is empty




NASA's NSSDC Master Catalog

Two Line Element Set (TLE):
1 54771U 22175P   23333.78448940  .00001150  00000-0  90318-4 0  9991
2 54771  53.2158 168.9956 0001327 101.1727 258.9415 15.08834823 52391
Source of the keplerian elements: AFSPC